770  
ASUS44 KLIX 031111  
RWRLIX  
NEW ORLEANS REGIONAL WEATHER ROUNDUP  
NATIONAL WEATHER SERVICE NEW ORLEANS LA  
500 AM CST SUN MAR 03 2024  
 
NOTE: "FAIR" INDICATES FEW OR NO CLOUDS BELOW 12,000 FEET WITH NO  
SIGNIFICANT WEATHER AND/OR S TO VISIBILITY
.  
SKY/WX - SKY CONDITION AND SIGNIFICANT WEATHER.  
TMP - AIR TEMPERATURE. DP - DEWPOINT TEMPERATURE.  
RH - RELATIVE HUMIDITY. PRES - PRESSURE.  
HI - HEAT INDEX. WCI - WIND CHILL INDEX.  
 
* THESE STATIONS ARE NOT NWS OR FAA STATIONS AND ARE NOT UNDER  
NWS QUALITY CONTROL.  
 
LAZ038-048-061-063-065>067-069-076-077-031200-  
SOUTHEAST LOUISIANA  
 
CITY SKY/WX TMP DP RH WIND PRES REMARKS
 
N.O. INTL ARPT CLOUDY 63 63 100 E12 30.02F FOG  
N.O. LAKEFRONT CLOUDY 65 63 93 SE8 30.04R  
RESERVE* MOCLDY 63 63 100 E3 30.03R FOG  
SLIDELL CLOUDY 64 62 93 SE5 30.03S  
BATON ROUGE CLOUDY 66 62 87 E5 30.01S  
BELLE CHASSE* FOG 65 64 97 E6 30.03S VSB 1/2  
GALLIANO* FOG 63 61 94 E7 30.03R VSB 3/4  
NEW ROADS* CLOUDY 63 62 97 CALM 30.02S FOG  
GONZALES* CLOUDY 65 64 96 CALM 30.01S  
HAMMOND* CLOUDY 63 63 100 SE3 30.04R  
HOUMA* CLOUDY 62 62 98 NE7 30.02S FOG  
 

 
 
MSZ070-077-080>082-031200-  
SOUTHERN MISSISSIPPI  
 
CITY SKY/WX TMP DP RH WIND PRES REMARKS
 
MCCOMB CLOUDY 60 60 100 SE3 30.03R FOG  
GULFPORT FOG 64 63 96 SE6 30.05R VSB 1/2  
BILOXI FOG 64 63 94 CALM 30.02S VSB 5/8  
PASCAGOULA CLOUDY 60 58 92 CALM 30.05S FOG  
 

 
 
COASTAL OBSERVATIONS  
LAKE AND NEARSHORE STATIONS  
 
STATION/POSITION TIME SKY/WX TEMP WIND PRES WAVE
 
AIR SEA DIR/SP/G HT/PER  
(UTC) (F) (DEG/KT/KT) (MB) (FT/S)  
WAVELAND YACHT 1024 68 62 120/ 3/ 4 N/A  
GRAND ISLE 1024 63 65 80/ 7/ 11 1016.7  
SOUTHWEST PASS 1024 66 55 70/ 13/ 14 1016.3  
NEW CANAL 1024 63 62 150/ 2/ 5 1017.1  
SHELL BEACH 1024 64 57 80/ 6/ 7 1017.4  
 
OFFSHORE STATIONS  
 
STATION/POSITION TIME SKY/WX TEMP WIND PRES WAVE
 
AIR SEA DIR/SP/G HT/PER  
(UTC) (F) (DEG/KT/KT) (MB) (FT/S)  
64 S DAUPHIN ISL 1050 72 72 100/ 10/ 12 1017.4 2/ 5  
SW PASS ENTRANCE 1030 63 65 N/A 2/ 6  
LA OFFSHORE OIL 1016 65 80/ 9/ 11 1016.1 2  
 

 
 
 
 
CLICK HERE TO GO TO PREVIOUS BULLETINS.

The Nexlab LA Page
The Nexlab MS Page Main Text Page